Theta_e
304 296 291 295 298 296 294 292 291 296 298 295 295 295 298 301 301 300 301 301 302 303 312 317 320 322 323 323 324 326 328 330 330 330 329 329 328 329 329 329 329 328 327 327
298 292 296 297 296 295 294 292 290 295 298 295 294 294 297 300 299 300 301 301 302 303 304 306 312 318 321 323 325 326 327 328 330 330 330 331 330 330 330 330 329 329 328 327
293 295 300 297 295 294 293 291 290 289 293 295 292 290 293 297 300 302 302 303 303 304 305 307 306 308 314 317 321 325 326 327 329 329 329 329 328 328 327 328 328 329 329 328
295 299 297 295 293 295 290 296 295 292 290 283 290 280 288 291 294 297 300 300 303 305 306 308 307 307 309 311 314 317 323 326 327 328 327 326 325 324 326 327 328 328 329 328
292 294 294 293 294 297 292 297 295 294 290 287 287 282 286 292 290 291 296 299 300 303 303 305 306 306 308 309 312 314 316 318 322 326 327 325 323 324 324 323 325 327 328 328
296 300 297 296 297 297 298 294 294 292 290 281 286 284 283 288 290 293 295 297 298 300 301 302 304 306 305 307 309 310 313 313 314 318 323 324 323 322 320 321 322 325 325 327
292 294 298 299 293 296 295 290 281 279 279 277 285 284 286 291 293 293 294 295 296 299 299 300 300 301 303 305 306 308 310 310 312 312 317 322 323 323 322 320 321 322 322 323
285 283 293 298 294 291 292 290 281 275 278 277 284 279 284 292 294 294 296 296 296 296 299 300 300 301 302 303 305 306 307 309 310 310 313 318 320 321 321 321 321 321 322 322
285 285 294 297 297 296 291 287 292 284 278 276 280 284 290 293 293 294 294 294 295 297 299 299 300 301 302 302 305 305 305 306 309 309 312 315 317 318 318 320 320 320 320 321
289 282 292 294 296 296 293 295 285 285 274 271 278 278 281 287 290 292 292 293 295 297 297 299 300 301 304 305 305 306 307 307 309 310 309 312 314 317 318 318 318 319 318 317
291 287 285 291 290 289 290 288 289 289 284 277 275 278 288 290 291 291 292 293 294 295 297 298 299 301 302 303 303 305 306 308 310 312 313 314 315 316 317 316 316 314 309 308
293 288 282 284 292 295 293 290 290 283 281 284 283 281 292 292 292 293 293 294 293 295 296 297 299 300 301 301 301 303 304 305 308 311 311 312 313 313 312 311 310 307 304 304
291 285 276 277 284 290 288 291 292 291 289 283 281 282 295 296 294 294 292 294 296 295 295 296 298 299 300 301 301 301 301 302 303 304 305 306 306 306 306 306 305 304 302 300
292 286 283 279 281 285 285 286 288 288 283 283 284 286 291 292 294 296 295 296 295 295 296 296 296 298 300 301 301 300 300 301 302 301 301 301 301 302 302 302 301 300 299 297
288 279 281 283 283 283 282 282 283 283 286 283 285 286 289 290 292 294 297 298 298 297 296 296 297 297 299 299 300 300 300 300 300 300 299 299 300 300 300 300 298 297 296 295
289 275 277 275 282 282 279 283 284 284 284 285 286 285 292 294 294 294 296 297 296 297 299 299 298 299 299 300 300 300 300 299 299 299 299 299 299 299 298 297 296 294 293 293
284 277 272 268 277 278 276 280 282 283 285 285 281 286 291 290 293 294 294 296 296 297 299 300 299 300 300 300 300 299 299 298 297 297 298 298 297 296 295 294 294 292 292 291
278 277 275 273 269 268 278 286 285 283 284 286 287 287 288 290 292 291 294 295 297 298 299 300 301 299 294 293 292 293 295 295 295 294 295 294 293 293 292 291 291 290 290 289
286 280 275 272 270 274 278 282 283 281 281 288 286 287 288 290 290 288 295 296 295 293 291 291 289 289 288 286 288 291 289 288 286 284 284 284 285 288 288 288 287 286 286 285
284 284 278 269 270 261 277 283 287 286 276 286 287 287 288 289 282 286 291 292 290 288 285 284 284 283 282 282 285 283 280 279 278 279 280 280 282 283 284 284 284 281 283 283
272 277 275 275 273 274 282 285 287 273 277 286 287 288 289 286 288 290 288 286 285 283 282 281 278 277 277 279 280 278 276 275 277 278 279 278 278 279 279 279 280 280 280 281
271 270 269 270 272 270 284 283 279 284 285 286 288 290 290 290 290 289 285 282 281 279 277 278 276 274 274 275 277 274 272 274 275 276 275 274 275 276 277 275 277 277 276 277
273 278 274 275 274 284 286 286 289 289 288 288 288 287 287 287 286 283 282 279 276 276 276 275 274 272 270 271 272 271 270 272 273 273 272 272 273 274 275 272 274 274 275 275
279 283 279 279 281 283 285 287 287 288 286 284 281 280 282 282 282 281 279 277 275 274 273 273 272 270 268 268 268 268 269 270 270 270 271 272 271 271 272 273 273 272 272 272
281 281 280 280 282 283 285 286 287 285 283 282 279 279 278 278 279 279 276 275 273 272 271 271 269 268 267 267 266 267 267 269 271 271 270 270 270 269 270 271 270 271 272 272
283 281 278 277 284 284 284 284 282 281 280 277 277 276 276 276 276 275 272 272 272 270 270 268 267 266 265 265 265 266 267 268 269 269 269 268 269 270 270 270 271 274 274 274
Wind_Speed
6 5 9 10 13 9 8 6 6 5 5 1 7 9 13 11 9 9 8 8 9 9 7 10 11 11 10 9 9 13 15 16 12 11 12 11 11 9 8 8 10 11 9 10
5 10 8 7 8 10 9 9 7 8 7 2 5 13 14 12 8 10 11 9 10 8 8 7 7 9 10 11 12 12 14 14 13 10 10 10 10 9 9 8 8 9 11 10
9 3 3 11 8 6 8 9 7 7 2 5 6 13 14 13 19 15 12 13 8 10 11 10 9 9 9 10 11 12 14 15 16 16 9 7 5 6 6 7 7 9 9 10
10 14 7 6 10 6 8 6 10 6 5 3 5 9 6 8 8 13 19 11 16 16 13 13 10 8 12 12 8 9 10 11 12 14 12 14 11 11 10 9 8 8 10 9
6 5 10 8 4 7 4 5 4 1 3 5 6 6 7 11 8 7 9 13 12 11 11 13 12 9 7 5 7 7 9 8 8 9 14 10 11 8 6 4 8 10 10 12
11 4 4 10 8 4 3 4 2 1 3 7 9 8 8 10 10 8 8 9 8 9 10 9 7 3 2 3 3 5 6 8 9 9 11 14 13 11 6 6 8 8 6 8
2 9 2 2 6 4 6 6 1 2 3 8 5 10 15 8 11 7 7 6 5 6 3 5 6 5 5 6 6 4 6 8 8 8 10 15 16 14 13 7 5 7 6 5
7 4 12 9 9 6 11 11 5 7 5 3 4 10 7 2 4 4 6 6 4 0 3 5 8 8 7 7 7 7 8 8 8 8 9 7 8 5 6 7 5 6 7 7
6 6 6 14 6 10 6 12 10 6 2 2 6 7 7 6 5 8 9 4 4 6 6 7 6 6 7 5 6 6 7 8 8 8 7 7 6 7 7 8 7 6 5 6
5 4 3 5 7 9 7 5 5 4 4 5 6 7 8 2 7 9 5 6 8 5 4 4 6 6 2 2 3 3 5 6 6 6 6 6 8 8 7 6 7 7 6 7
7 3 1 2 9 9 6 8 3 2 6 4 3 5 2 7 6 8 7 4 4 5 5 4 4 3 1 2 2 3 3 3 3 3 2 3 4 5 5 5 5 6 6 7
10 4 5 9 5 10 12 12 15 7 8 7 12 11 3 6 5 6 3 0 1 4 5 4 3 3 3 4 4 4 4 4 4 3 3 2 2 3 5 5 5 5 6 5
1 1 3 4 2 4 4 6 13 14 12 12 5 7 12 16 9 5 3 5 5 6 5 6 4 5 4 4 5 5 4 4 4 3 4 4 5 5 5 6 6 6 7 7
5 1 4 4 4 4 3 6 8 13 11 18 16 24 16 10 16 13 8 12 9 6 6 4 4 5 5 5 5 5 5 6 6 5 5 6 7 7 6 6 7 7 7 7
5 3 0 4 5 3 5 11 11 13 11 9 9 16 18 12 14 14 19 17 15 12 6 6 6 6 7 7 7 7 6 6 6 7 7 8 6 6 6 7 7 7 7 7
3 4 2 9 9 10 11 8 9 11 11 11 15 17 18 14 14 14 13 14 13 15 16 10 8 8 9 9 8 7 7 7 6 7 8 6 7 7 7 7 7 7 7 7
4 3 2 7 3 3 6 13 12 11 10 10 14 14 15 20 13 12 15 12 12 15 15 14 9 8 7 6 5 5 5 3 5 6 6 6 6 7 7 6 6 7 7 6
2 1 1 7 5 13 10 13 14 17 18 14 13 11 15 19 14 9 9 10 13 14 14 12 9 4 6 5 7 7 7 6 5 5 5 6 4 4 4 5 6 5 5 7
11 5 5 5 9 11 13 6 6 8 13 14 15 12 19 22 14 13 10 7 5 7 8 8 7 6 6 7 6 5 6 6 7 6 6 7 7 5 3 5 5 3 5 5
10 11 8 3 9 7 7 12 18 21 19 16 16 19 20 15 12 14 3 4 6 6 5 7 8 7 9 9 7 6 6 7 7 7 6 6 6 7 6 4 5 3 3 4
1 4 13 12 12 7 7 13 14 7 9 15 12 12 14 12 6 1 4 3 3 4 7 6 7 7 8 9 6 8 8 9 8 7 6 7 8 6 6 4 4 3 4 5
8 6 5 2 6 13 12 9 12 14 5 4 5 4 6 7 10 6 5 5 7 6 7 8 6 7 9 10 7 8 10 9 8 7 7 7 8 7 6 6 5 5 4 5
10 10 7 9 9 8 7 7 6 5 8 8 6 3 3 6 7 3 2 5 5 4 5 7 6 6 8 9 10 8 9 9 8 6 6 6 6 7 6 6 6 4 5 4
9 9 11 13 18 20 20 18 15 18 7 1 2 2 3 6 7 5 2 3 5 5 6 5 6 6 6 7 8 7 7 8 6 6 6 5 7 6 6 5 5 5 5 5
10 5 16 20 18 21 21 17 18 8 5 2 3 2 1 4 5 3 3 3 5 5 4 5 4 5 5 5 6 6 8 8 6 6 6 6 4 5 5 5 4 5 4 4
9 20 14 18 17 17 19 5 4 2 3 5 2 1 3 4 2 4 5 4 3 3 3 4 4 4 1 1 3 5 8 8 6 5 4 4 4 5 5 4 3 7 7 8
Wind_Direction
213 211 208 209 224 250 295 300 296 235 80 97 245 254 263 259 259 245 236 249 263 266 242 188 186 190 193 196 187 192 192 192 188 192 194 203 210 211 213 212 201 197 190 185
189 241 245 264 263 239 258 280 270 289 114 100 287 276 275 270 245 229 248 248 231 247 269 245 215 190 188 198 201 203 198 194 196 201 206 205 207 211 210 211 208 198 191 186
213 128 197 225 261 277 248 240 258 258 318 197 262 272 239 245 240 243 238 238 248 246 241 245 228 219 207 206 210 208 205 202 198 201 196 205 206 211 203 205 215 209 192 187
230 241 267 248 230 221 262 242 248 286 343 255 47 295 305 298 266 233 237 236 240 242 241 244 249 229 214 220 208 212 213 212 205 197 198 200 207 211 215 203 209 207 201 196
212 180 205 226 196 216 239 7 3 206 240 302 273 274 253 223 275 272 206 220 231 235 241 250 242 248 258 221 218 218 214 203 207 202 200 201 210 214 215 196 189 195 192 197
234 11 226 225 224 217 112 141 88 251 226 254 201 219 229 234 225 237 230 226 232 239 232 237 236 222 283 298 224 184 199 216 208 204 196 202 204 209 198 206 203 193 174 182
314 233 337 325 175 162 162 176 170 208 184 239 200 204 246 302 291 266 272 279 301 327 2 360 346 324 276 260 270 262 225 234 237 236 215 201 205 206 210 203 175 166 168 181
192 204 190 173 220 162 197 204 179 209 194 289 118 229 247 114 325 291 279 270 241 291 343 293 272 256 255 246 237 232 236 240 236 231 222 219 216 210 204 204 176 182 183 183
200 232 139 164 183 167 173 221 240 315 107 55 244 276 301 254 237 276 282 301 262 238 260 268 284 279 245 242 257 249 255 249 229 239 209 205 202 197 203 204 182 182 174 178
315 283 126 146 189 246 179 157 185 218 214 237 254 255 247 210 244 241 331 20 6 342 265 295 295 281 313 323 298 265 274 266 251 238 217 198 202 198 193 191 183 175 162 148
211 201 337 119 206 197 216 229 234 300 210 207 269 241 91 107 99 77 38 27 354 348 336 302 283 284 344 318 282 242 231 268 303 291 262 192 185 165 155 161 162 155 141 150
212 196 219 235 246 227 228 226 207 217 209 232 252 247 109 127 114 106 113 246 322 318 294 285 296 293 250 239 238 235 216 202 192 181 151 200 155 149 148 153 157 150 146 143
58 209 233 302 270 8 246 237 237 252 267 231 227 253 219 250 286 11 266 300 240 227 282 298 311 301 284 265 246 239 233 219 211 178 174 189 185 182 185 179 162 149 151 156
98 300 253 271 91 334 233 347 317 283 256 257 248 271 270 307 307 310 318 323 286 210 221 262 299 287 277 278 278 268 245 213 207 202 212 212 200 189 188 173 157 153 154 151
116 239 200 249 269 224 259 285 293 276 281 268 274 268 280 262 282 316 313 307 310 317 284 246 242 237 244 255 259 255 256 224 203 205 213 225 208 198 186 177 171 158 156 154
185 272 190 277 257 265 275 284 272 258 284 281 279 282 288 285 282 268 270 276 289 292 282 276 252 237 246 245 246 247 244 242 204 218 225 211 195 191 198 184 175 161 162 161
173 171 104 261 291 244 241 229 228 260 249 249 272 282 298 303 291 290 295 282 282 290 297 295 247 250 251 251 271 252 269 261 233 235 236 219 210 202 199 183 174 175 171 148
245 117 201 265 33 268 234 206 216 236 250 260 266 269 276 276 280 274 268 267 278 277 283 284 282 354 60 29 16 349 355 4 9 14 6 355 295 233 206 188 184 163 157 164
225 215 243 233 248 273 305 279 199 204 236 231 245 263 273 274 280 297 253 270 333 16 17 17 16 23 40 31 358 15 41 37 34 24 20 2 348 318 226 209 189 147 136 133
237 227 219 237 252 236 231 245 239 250 255 254 242 247 253 269 283 282 14 356 1 26 27 18 15 19 27 5 2 48 38 43 35 14 9 6 12 25 39 60 73 20 79 104
115 223 239 242 245 251 244 259 274 272 266 245 254 257 259 262 266 60 119 66 65 34 22 31 53 42 18 360 10 44 40 32 2 8 20 18 19 38 29 47 54 61 79 95
174 177 207 234 251 267 240 271 239 252 312 304 326 4 320 320 314 11 32 50 44 24 29 32 34 41 22 6 30 40 33 9 4 13 32 28 24 23 20 33 29 42 61 87
253 224 246 197 218 226 252 221 257 212 225 273 249 237 285 287 284 350 5 77 68 40 34 52 48 45 30 26 27 51 18 6 2 11 27 29 36 36 20 35 23 32 38 48
256 256 254 267 259 259 267 276 275 281 273 105 89 21 320 291 325 335 17 79 85 57 47 39 67 50 31 23 43 37 32 4 8 4 9 37 34 32 34 45 32 44 34 35
248 258 252 258 263 274 268 266 271 253 166 144 126 138 296 322 314 35 81 77 80 81 64 55 66 77 45 19 22 39 22 36 18 23 8 5 38 39 34 56 48 48 39 46
230 248 250 256 259 252 269 316 34 39 65 56 10 157 70 4 21 101 78 47 74 82 91 90 76 80 67 60 8 21 36 29 33 34 11 6 15 29 30 28 42 65 47 38